Weather History for KRAS - September, 2013

Change the Weather History Date:

Saturday, September 21, 2013

  Actual Average (KCRP) Record (KCRP)
Temperature  
Mean Temperature 76 °F 80 °F  
Max Temperature 77 °F 89 °F 102 °F (1947)
Min Temperature 73 °F 71 °F 57 °F (1983)
Degree Days  
Heating Degree Days 0 0  
Month to date heating degree days 0  
Since 1 July heating degree days 0  
Cooling Degree Days 11 15  
Month to date cooling degree days 356  
Year to date cooling degree days 2917  
Growing Degree Days 26 (Base 50)    
Moisture  
Dew Point 71 °F    
Average Humidity 83    
Maximum Humidity 95    
Minimum Humidity 71    
Precipitation  
Precipitation 0.31 in 0.16 in 6.38 in (1967)
Month to date precipitation 3.66  
Year to date precipitation 23.00  
Snow  
Snow 0.00 in - - ()
Month to date snowfall  
Since 1 July snowfall  
Since 1 September snowfall  
Snow Depth -    
Sea Level Pressure  
Sea Level Pressure 29.76 in    
Wind  
Wind Speed 15 mph (North)    
Max Wind Speed 28 mph    
Max Gust Speed 34 mph    
Visibility 10 miles    
Events Rain , Thunderstorm    
T = Trace of Precipitation, MM = Missing Value Source: NWS Daily Summary

Daily Weather History Graph

Daily Weather History Graph

Search for Another Location

Airport or City:

Trip Planner

Search our weather history database for the weather conditions in past years. The results will help you decide how hot, cold, wet, or windy it might be!

Date:

Astronomy

Sep. 21, 2013 Rise Set
Actual Time 7:16 AM CDT 7:25 PM CDT
Civil Twilight 6:53 AM CDT 7:49 PM CDT
Nautical Twilight 6:25 AM CDT 8:16 PM CDT
Astronomical Twilight 5:58 AM CDT 8:43 PM CDT
Moon 8:54 PM CDT (9/21) 9:20 AM CDT (9/21)
Length of Visible Light 12h 55m
Length of Day
12h 09m
Waning Gibbous, 94% of the Moon is Illuminated
Sep 21
Waning Gibbous
Sep 26
Last Quarter
Oct 4
New
Oct 11
First Quarter
Oct 18
Full

Hourly Weather History & Observations

Time (CDT) Temp. Dew Point Humidity Pressure Visibility Wind Dir Wind Speed Gust Speed Precip Events Conditions
12:15 AM 79.0 °F 74.7 °F 87% 29.75 in 7.0 mi WNW 3.5 mph - N/A Thunderstorm Unknown
12:35 AM 76.6 °F 73.8 °F 91% 29.75 in 10.0 mi WNW 11.5 mph - 0.01 in Thunderstorm Unknown
12:55 AM 76.1 °F 73.8 °F 92% 29.74 in 10.0 mi NW 9.2 mph - 0.01 in Thunderstorm Thunderstorm
1:15 AM 76.3 °F 74.3 °F 94% 29.74 in 10.0 mi NW 10.4 mph - N/A   Clear
1:35 AM 76.1 °F 74.1 °F 94% 29.73 in 10.0 mi NNW 11.5 mph - N/A Thunderstorm Drizzle
1:55 AM 75.9 °F 73.9 °F 94% 29.73 in 7.0 mi NNW 12.7 mph - 0.04 in Rain , Thunderstorm Light Thunderstorms and Rain
2:15 AM 76.1 °F 74.3 °F 94% 29.73 in 7.0 mi North 11.5 mph - 0.03 in Rain , Thunderstorm Light Thunderstorms and Rain
2:35 AM 76.3 °F 74.5 °F 94% 29.72 in 7.0 mi North 10.4 mph - 0.07 in Rain Light Rain
2:55 AM 76.3 °F 74.7 °F 95% 29.72 in 7.0 mi North 9.2 mph - 0.11 in Rain Light Rain
3:15 AM 76.5 °F 74.8 °F 95% 29.71 in 5.0 mi North 10.4 mph - 0.06 in Rain , Thunderstorm Thunderstorms and Rain
3:35 AM 76.6 °F 75.2 °F 95% 29.72 in 7.0 mi North 9.2 mph - 0.11 in Rain , Thunderstorm Light Thunderstorms and Rain
3:55 AM 76.5 °F 75.0 °F 95% 29.73 in 10.0 mi North 9.2 mph - 0.14 in Rain , Thunderstorm Rain
4:15 AM 76.1 °F 74.5 °F 95% 29.72 in 10.0 mi North 16.1 mph - 0.01 in   Overcast
4:35 AM 75.9 °F 74.1 °F 94% 29.71 in 10.0 mi North 15.0 mph - 0.01 in   Overcast
4:55 AM 75.6 °F 73.8 °F 94% 29.71 in 10.0 mi North 15.0 mph 23.0 mph 0.01 in   Overcast
5:15 AM 75.0 °F 73.0 °F 94% 29.71 in 10.0 mi North 19.6 mph 23.0 mph N/A   Overcast
5:35 AM 75.2 °F 72.7 °F 92% 29.72 in 10.0 mi North 19.6 mph 25.3 mph N/A   Overcast
5:55 AM 74.8 °F 72.1 °F 91% 29.72 in 10.0 mi North 21.9 mph 27.6 mph N/A   Overcast
6:15 AM 74.1 °F 71.2 °F 91% 29.73 in 10.0 mi North 26.5 mph 29.9 mph N/A Thunderstorm Overcast
6:35 AM 74.3 °F 70.9 °F 89% 29.74 in 10.0 mi North 26.5 mph 32.2 mph N/A   Overcast
6:55 AM 73.9 °F 70.7 °F 90% 29.74 in 10.0 mi North 23.0 mph 34.5 mph N/A   Overcast
7:15 AM 74.3 °F 70.5 °F 88% 29.75 in 10.0 mi North 27.6 mph 32.2 mph N/A   Overcast
7:35 AM 74.3 °F 70.9 °F 89% 29.75 in 10.0 mi North 19.6 mph 28.8 mph N/A Thunderstorm Overcast
7:55 AM 74.3 °F 70.7 °F 88% 29.76 in 10.0 mi NNE 20.7 mph 31.1 mph N/A   Overcast
8:15 AM 74.3 °F 70.7 °F 88% 29.76 in 10.0 mi NNE 25.3 mph 31.1 mph N/A   Overcast
8:35 AM 74.3 °F 70.5 °F 88% 29.77 in 10.0 mi North 18.4 mph 27.6 mph N/A   Overcast
8:55 AM 74.3 °F 70.7 °F 88% 29.78 in 10.0 mi North 17.3 mph 26.5 mph N/A Rain Light Rain
9:15 AM 73.8 °F 70.5 °F 90% 29.79 in 10.0 mi NNE 16.1 mph 24.2 mph N/A   Overcast
9:35 AM 73.9 °F 70.2 °F 88% 29.80 in 10.0 mi NNE 18.4 mph 26.5 mph N/A   Overcast
9:55 AM 74.3 °F 70.3 °F 87% 29.80 in 10.0 mi NNE 21.9 mph - N/A   Overcast
10:15 AM 74.3 °F 70.2 °F 87% 29.80 in 10.0 mi North 25.3 mph 28.8 mph N/A   Overcast
10:35 AM 74.5 °F 70.0 °F 86% 29.80 in 10.0 mi North 21.9 mph 29.9 mph N/A   Overcast
10:55 AM 75.9 °F 70.2 °F 82% 29.80 in 10.0 mi North 26.5 mph 34.5 mph N/A   Overcast
11:15 AM 76.1 °F 70.2 °F 82% 29.79 in 10.0 mi North 26.5 mph 34.5 mph N/A   Overcast
11:35 AM 76.5 °F 70.0 °F 80% 29.79 in 10.0 mi North 25.3 mph 34.5 mph N/A   Overcast
11:55 AM 75.4 °F 70.3 °F 84% 29.79 in 10.0 mi North 21.9 mph 28.8 mph N/A   Overcast
12:15 PM 75.2 °F 70.0 °F 84% 29.79 in 10.0 mi North 23.0 mph 31.1 mph N/A   Overcast
12:35 PM 75.2 °F 70.0 °F 84% 29.80 in 10.0 mi North 21.9 mph 31.1 mph N/A   Overcast
12:55 PM 75.4 °F 70.0 °F 83% 29.80 in 10.0 mi North 24.2 mph 28.8 mph N/A   Overcast
1:15 PM 76.3 °F 70.0 °F 81% 29.79 in 10.0 mi North 21.9 mph 29.9 mph N/A   Overcast
1:35 PM 76.3 °F 69.6 °F 80% 29.78 in 10.0 mi NNE 23.0 mph 28.8 mph N/A   Overcast
1:55 PM 76.1 °F 69.4 °F 80% 29.78 in 10.0 mi North 20.7 mph 27.6 mph N/A   Overcast
2:15 PM 76.5 °F 69.1 °F 78% 29.78 in 10.0 mi NNE 25.3 mph 31.1 mph N/A   Overcast
2:35 PM 75.6 °F 69.3 °F 81% 29.78 in 10.0 mi NNE 18.4 mph 26.5 mph N/A   Overcast
2:55 PM 76.1 °F 69.4 °F 80% 29.78 in 10.0 mi North 23.0 mph - N/A   Overcast
3:15 PM 76.6 °F 69.3 °F 78% 29.78 in 10.0 mi North 19.6 mph 25.3 mph N/A   Overcast
3:35 PM 76.8 °F 69.4 °F 78% 29.77 in 10.0 mi North 18.4 mph - N/A   Overcast
3:55 PM 76.5 °F 69.4 °F 79% 29.76 in 10.0 mi North 19.6 mph 23.0 mph N/A   Overcast
4:15 PM 75.4 °F 68.5 °F 79% 29.77 in 10.0 mi North 21.9 mph 26.5 mph N/A   Overcast
4:35 PM 76.1 °F 68.4 °F 77% 29.76 in 10.0 mi North 21.9 mph 26.5 mph N/A   Overcast
4:55 PM 76.3 °F 68.7 °F 77% 29.76 in 10.0 mi North 17.3 mph 23.0 mph N/A   Overcast
5:15 PM 76.5 °F 68.4 °F 76% 29.76 in 10.0 mi North 16.1 mph - N/A   Overcast
5:35 PM 77.0 °F 68.2 °F 74% 29.76 in 10.0 mi North 17.3 mph 23.0 mph N/A   Overcast
5:55 PM 77.4 °F 68.2 °F 73% 29.76 in 10.0 mi North 13.8 mph 20.7 mph N/A   Overcast
6:15 PM 77.5 °F 68.7 °F 74% 29.76 in 10.0 mi North 15.0 mph 19.6 mph N/A   Overcast
6:35 PM 77.9 °F 68.4 °F 72% 29.77 in 10.0 mi North 15.0 mph 18.4 mph N/A   Overcast
6:55 PM 77.5 °F 68.2 °F 73% 29.77 in 10.0 mi North 13.8 mph 17.3 mph N/A   Overcast
7:15 PM 77.7 °F 68.2 °F 72% 29.77 in 10.0 mi North 10.4 mph - N/A   Overcast
7:35 PM 77.4 °F 68.2 °F 73% 29.77 in 10.0 mi North 11.5 mph - N/A   Overcast
7:55 PM 77.4 °F 68.0 °F 73% 29.77 in 10.0 mi North 11.5 mph - N/A   Overcast
8:15 PM 77.4 °F 68.4 °F 74% 29.77 in 10.0 mi North 9.2 mph - N/A   Overcast
8:35 PM 77.4 °F 68.9 °F 75% 29.78 in 10.0 mi North 8.1 mph - N/A   Overcast
8:55 PM 77.0 °F 69.4 °F 77% 29.78 in 10.0 mi North 9.2 mph - N/A   Overcast
9:15 PM 77.0 °F 69.1 °F 76% 29.78 in 10.0 mi North 9.2 mph - N/A   Mostly Cloudy
9:35 PM 77.2 °F 68.9 °F 76% 29.78 in 10.0 mi North 10.4 mph - N/A   Mostly Cloudy
9:55 PM 77.0 °F 68.7 °F 75% 29.78 in 10.0 mi North 10.4 mph - N/A   Overcast
10:15 PM 76.5 °F 69.3 °F 78% 29.79 in 10.0 mi North 8.1 mph - N/A   Overcast
10:35 PM 77.0 °F 67.5 °F 72% 29.79 in 10.0 mi North 11.5 mph - N/A   Overcast
10:55 PM 77.0 °F 67.3 °F 72% 29.80 in 10.0 mi North 12.7 mph - N/A   Overcast
11:15 PM 77.0 °F 67.1 °F 71% 29.80 in 10.0 mi North 11.5 mph - N/A   Overcast
11:35 PM 77.2 °F 67.3 °F 71% 29.80 in 10.0 mi North 11.5 mph - N/A   Overcast
11:55 PM 77.0 °F 67.1 °F 71% 29.80 in 10.0 mi North 11.5 mph - N/A   Overcast